Weather History for KLXN - April, 2013

Change the Weather History Date:

Saturday, April 6, 2013

  Actual Average Record
Temperature  
Mean Temperature 59 °F -  
Max Temperature 72 °F 55 °F 100 °F (1999)
Min Temperature 45 °F 31 °F 19 °F (2007)
Degree Days  
Heating Degree Days 6    
Growing Degree Days 9 (Base 50)    
Moisture  
Dew Point 35 °F    
Average Humidity 43    
Maximum Humidity 69    
Minimum Humidity 19    
Precipitation  
Precipitation 0.00 in - - ()
Sea Level Pressure  
Sea Level Pressure 29.74 in    
Wind  
Wind Speed 14 mph (NW)    
Max Wind Speed 34 mph    
Max Gust Speed 43 mph    
Visibility 10 miles    
Events      
Averages and records for this station are not official NWS values.
T = Trace of Precipitation, MM = Missing Value Source: NWS Daily Summary

Daily Weather History Graph

Daily Weather History Graph

Search for Another Location

Airport or City:

Trip Planner

Search our weather history database for the weather conditions in past years. The results will help you decide how hot, cold, wet, or windy it might be!

Date:

Astronomy

Apr. 06, 2013 Rise Set
Actual Time 7:13 AM CDT 8:09 PM CDT
Civil Twilight 6:46 AM CDT 8:37 PM CDT
Nautical Twilight 6:13 AM CDT 9:10 PM CDT
Astronomical Twilight 5:38 AM CDT 9:45 PM CDT
Moon 5:00 AM CDT (4/6) 4:38 PM CDT (4/6)
Length of Visible Light 13h 51m
Length of Day
12h 55m
Waning Crescent, 15% of the Moon is Illuminated
Apr 6
Waning Crescent
Apr 10
New
Apr 18
First Quarter
Apr 25
Full
May 2
Last Quarter

Hourly Weather History & Observations

Time (CDT) Temp. Dew Point Humidity Pressure Visibility Wind Dir Wind Speed Gust Speed Precip Events Conditions
12:15 AM 57.2 °F 41.0 °F 55% 29.62 in 10.0 mi South 12.7 mph - N/A   Clear
12:35 AM 56.5 °F 41.2 °F 57% 29.62 in 10.0 mi South 10.4 mph - N/A   Clear
12:55 AM 55.0 °F 41.0 °F 59% 29.62 in 10.0 mi SSE 4.6 mph - N/A   Clear
1:15 AM 55.4 °F 41.2 °F 59% 29.66 in 10.0 mi West 6.9 mph 17.3 mph N/A   Clear
1:35 AM 56.1 °F 41.4 °F 58% 29.66 in 10.0 mi WNW 5.8 mph - N/A   Scattered Clouds
1:55 AM 55.4 °F 40.8 °F 58% 29.65 in 10.0 mi WSW 4.6 mph - N/A   Scattered Clouds
2:15 AM 53.8 °F 40.5 °F 61% 29.64 in 10.0 mi WSW 3.5 mph - N/A   Scattered Clouds
2:35 AM 52.7 °F 40.6 °F 64% 29.64 in 10.0 mi West 4.6 mph - N/A   Scattered Clouds
2:55 AM 50.0 °F 40.3 °F 69% 29.64 in 10.0 mi WNW 9.2 mph - N/A   Clear
3:15 AM 52.3 °F 40.5 °F 64% 29.63 in 10.0 mi WNW 11.5 mph - N/A   Clear
3:35 AM 57.2 °F 38.8 °F 50% 29.62 in 10.0 mi WNW 13.8 mph - N/A   Clear
3:55 AM 58.3 °F 37.8 °F 46% 29.62 in 10.0 mi NW 18.4 mph 23.0 mph N/A   Clear
4:15 AM 57.7 °F 37.0 °F 46% 29.62 in 10.0 mi NNW 26.5 mph 33.4 mph N/A   Clear
4:35 AM 56.3 °F 34.7 °F 44% 29.63 in 10.0 mi NNW 23.0 mph 34.5 mph N/A   Clear
4:55 AM 55.4 °F 34.7 °F 46% 29.64 in 10.0 mi NNW 17.3 mph - N/A   Scattered Clouds
5:15 AM 54.9 °F 35.1 °F 47% 29.60 in 10.0 mi North 21.9 mph - N/A   Mostly Cloudy
5:35 AM 54.5 °F 35.4 °F 49% 29.62 in 10.0 mi NW 20.7 mph 27.6 mph N/A   Mostly Cloudy
5:55 AM 53.6 °F 36.9 °F 53% 29.64 in 10.0 mi WNW 18.4 mph 21.9 mph N/A   Scattered Clouds
6:15 AM 53.2 °F 38.5 °F 57% 29.66 in 10.0 mi NW 19.6 mph 26.5 mph N/A   Clear
6:35 AM 52.7 °F 39.2 °F 60% 29.67 in 10.0 mi NW 19.6 mph - N/A   Clear
6:55 AM 51.8 °F 39.4 °F 63% 29.68 in 10.0 mi NW 18.4 mph - N/A   Clear
7:15 AM 51.3 °F 39.4 °F 64% 29.70 in 10.0 mi NW 21.9 mph - N/A   Clear
7:35 AM 50.5 °F 39.6 °F 66% 29.71 in 10.0 mi NW 21.9 mph 27.6 mph N/A   Clear
7:55 AM 50.0 °F 39.6 °F 67% 29.73 in 10.0 mi NW 20.7 mph 25.3 mph N/A   Clear
8:15 AM 50.0 °F 38.7 °F 65% 29.73 in 10.0 mi WNW 17.3 mph - N/A   Clear
8:35 AM 51.4 °F 38.8 °F 62% 29.75 in 10.0 mi NW 19.6 mph 25.3 mph N/A   Clear
8:55 AM 53.8 °F 39.7 °F 59% 29.75 in 10.0 mi NW 25.3 mph 28.8 mph N/A   Clear
9:15 AM 56.1 °F 39.9 °F 55% 29.76 in 10.0 mi NNW 23.0 mph 31.1 mph N/A   Clear
9:35 AM 57.9 °F 40.1 °F 52% 29.76 in 10.0 mi NW 21.9 mph 29.9 mph N/A   Clear
9:55 AM 59.0 °F 39.6 °F 49% 29.76 in 10.0 mi NW 33.4 mph 38.0 mph N/A   Clear
10:15 AM 59.4 °F 38.8 °F 47% 29.76 in 10.0 mi NW 27.6 mph 36.8 mph N/A   Clear
10:35 AM 60.8 °F 38.3 °F 43% 29.77 in 7.0 mi NW 31.1 mph 42.6 mph N/A   Clear
10:55 AM 61.9 °F 38.7 °F 42% 29.78 in 10.0 mi NNW 33.4 mph 41.4 mph N/A   Scattered Clouds
11:15 AM 61.5 °F 38.5 °F 43% 29.79 in 10.0 mi NW 31.1 mph 42.6 mph N/A   Mostly Cloudy
11:35 AM 62.8 °F 38.5 °F 41% 29.79 in 10.0 mi NW 29.9 mph 39.1 mph N/A   Mostly Cloudy
11:55 AM 62.6 °F 38.3 °F 41% 29.80 in 10.0 mi NNW 34.5 mph - N/A   Scattered Clouds
12:15 PM 64.0 °F 38.7 °F 39% 29.79 in 10.0 mi NNW 24.2 mph 35.7 mph N/A   Scattered Clouds
12:35 PM 64.6 °F 39.0 °F 39% 29.78 in 10.0 mi North 29.9 mph 33.4 mph N/A   Scattered Clouds
12:55 PM 64.4 °F 38.5 °F 38% 29.78 in 10.0 mi North 23.0 mph 36.8 mph N/A   Clear
1:15 PM 64.8 °F 38.1 °F 37% 29.78 in 10.0 mi North 20.7 mph 31.1 mph N/A   Clear
1:35 PM 66.2 °F 37.2 °F 34% 29.78 in 10.0 mi North 16.1 mph 23.0 mph N/A   Clear
1:55 PM 66.9 °F 36.1 °F 32% 29.78 in 10.0 mi NNW 18.4 mph 25.3 mph N/A   Clear
2:15 PM 67.8 °F 36.0 °F 31% 29.78 in 10.0 mi NNW 12.7 mph 23.0 mph N/A   Scattered Clouds
2:35 PM 68.2 °F 34.9 °F 29% 29.78 in 10.0 mi North 16.1 mph 21.9 mph N/A   Scattered Clouds
2:55 PM 69.1 °F 33.1 °F 26% 29.78 in 10.0 mi NW 17.3 mph 24.2 mph N/A   Scattered Clouds
3:15 PM 70.9 °F 34.0 °F 26% 29.78 in 10.0 mi NW 16.1 mph 25.3 mph N/A   Scattered Clouds
3:35 PM 71.8 °F 33.4 °F 24% 29.77 in 10.0 mi NNW 13.8 mph 23.0 mph N/A   Scattered Clouds
3:55 PM 70.5 °F 32.0 °F 24% 29.77 in 10.0 mi NW 12.7 mph 21.9 mph N/A   Scattered Clouds
4:15 PM 71.4 °F 32.4 °F 24% 29.76 in 10.0 mi NNW 17.3 mph 23.0 mph N/A   Scattered Clouds
4:35 PM 69.8 °F 31.5 °F 24% 29.76 in 10.0 mi NW 15.0 mph 25.3 mph N/A   Scattered Clouds
4:55 PM 72.1 °F 30.9 °F 22% 29.76 in 10.0 mi NW 13.8 mph 17.3 mph N/A   Mostly Cloudy
5:15 PM 72.1 °F 29.1 °F 20% 29.77 in 10.0 mi NW 18.4 mph 26.5 mph N/A   Mostly Cloudy
5:35 PM 71.6 °F 28.2 °F 20% 29.77 in 10.0 mi WNW 18.4 mph - N/A   Scattered Clouds
5:55 PM 71.6 °F 28.8 °F 20% 29.77 in 10.0 mi NW 11.5 mph - N/A   Mostly Cloudy
6:15 PM 72.1 °F 27.7 °F 19% 29.78 in 10.0 mi NNW 15.0 mph - N/A   Mostly Cloudy
6:35 PM 69.8 °F 26.4 °F 20% 29.78 in 10.0 mi NW 16.1 mph - N/A   Scattered Clouds
6:55 PM 69.8 °F 26.4 °F 20% 29.78 in 10.0 mi NNW 11.5 mph - N/A   Clear
7:15 PM 68.7 °F 27.0 °F 21% 29.78 in 10.0 mi NNW 12.7 mph - N/A   Clear
7:35 PM 67.1 °F 27.5 °F 23% 29.78 in 10.0 mi North 8.1 mph - N/A   Clear
7:55 PM 63.3 °F 28.4 °F 27% 29.78 in 10.0 mi North 5.8 mph - N/A   Clear
8:15 PM 62.6 °F 27.9 °F 27% 29.78 in 10.0 mi NNE 4.6 mph - N/A   Clear
8:35 PM 59.4 °F 27.7 °F 30% 29.78 in 10.0 mi NNE 4.6 mph - N/A   Clear
8:55 PM 57.7 °F 27.9 °F 32% 29.78 in 10.0 mi NNE 3.5 mph - N/A   Clear
9:15 PM 55.4 °F 27.7 °F 35% 29.79 in 10.0 mi Calm Calm - N/A   Clear
9:35 PM 53.4 °F 29.5 °F 40% 29.81 in 10.0 mi Calm Calm - N/A   Clear
9:55 PM 54.7 °F 28.0 °F 36% 29.82 in 10.0 mi Calm Calm - N/A   Clear
10:15 PM 52.3 °F 29.8 °F 42% 29.83 in 10.0 mi Calm Calm - N/A   Clear
10:35 PM 48.4 °F 30.2 °F 49% 29.83 in 10.0 mi Calm Calm - N/A   Clear
10:55 PM 49.8 °F 30.2 °F 47% 29.83 in 10.0 mi Calm Calm - N/A   Clear
11:15 PM 48.6 °F 30.6 °F 50% 29.83 in 10.0 mi Calm Calm - N/A   Clear
11:35 PM 46.4 °F 30.2 °F 53% 29.83 in 10.0 mi Calm Calm - N/A   Scattered Clouds
11:55 PM 45.5 °F 30.9 °F 57% 29.83 in 10.0 mi Calm Calm - N/A   Overcast